Location: NJAA Observatory
(40.6819°N, 74.8979°W)
Time: 08:37:17
(UTC-04:00)

Daily predictions for brighter satellites

Satellite Brightness Start Highest point End
(mag) Time Altitude Azimuth Time Altitude Azimuth Time Altitude Azimuth
Cosmos 1666 3.6 20:49:14 10° NNE 20:52:35 30° ENE 20:55:55 10° SE
Resurs 1-3 4.4 20:48:41 10° S 20:52:59 54° W 20:57:18 10° NNW
H-2A R/B 4.1 20:53:10 10° ENE 20:54:25 11° ENE 20:55:39 10° NE
SAR-Lupe-4 3.8 20:52:51 10° SSE 20:56:21 55° ENE 20:59:53 10° N
Meteor 2-4 Rocket 4.2 20:52:43 10° SSE 20:57:55 41° E 21:03:19 10° NNE
YAOGAN 6 3.4 20:55:54 10° SE 20:59:02 32° ENE 21:02:13 10° N
Spot 2 Rocket 4.4 20:54:51 10° S 20:59:44 50° W 21:04:38 10° NNW
USA 81 4.1 20:56:40 10° S 21:01:56 82° E 21:07:15 10° N
Cosmos 1656 Rocket 3.6 20:57:28 10° NNW 21:02:57 85° ENE 21:08:28 10° SSE
Aureole 3 Rocket 3.8 20:57:27 10° S 21:03:53 58° E 21:08:28 10° NNE
Resurs 01 Rocket 3.2 21:00:10 10° SSW 21:04:14 35° W 21:08:20 10° NNW
SL-27 R/B 3.0 21:04:16 10° S 21:07:43 41° ESE 21:11:11 10° NNE
ASTEX 1 3.9 21:03:11 10° SSE 21:07:47 41° ENE 21:12:22 10° N
Cosmos 1238 Rocket 4.4 21:02:45 10° SSE 21:09:08 48° E 21:15:22 10° NNE
Aureole 1 Rocket 2.5 21:06:52 10° S 21:10:07 46° ESE 21:13:02 10° NNE
USA 40 PKM 4.4 21:07:55 10° SW 21:11:19 82° NW 21:15:49 10° NE
Cosmos 1680 Rocket 3.5 21:06:15 10° S 21:11:27 71° ESE 21:16:39 10° NNE
Cosmos 1455 Rocket 3.9 21:07:17 10° NNW 21:11:30 50° W 21:15:41 10° SSW
Nadezhda 1 Rocket 4.2 21:05:57 10° SSE 21:12:05 53° E 21:18:16 10° NNE
SAR-Lupe-1 4.0 21:09:11 10° SSE 21:12:45 77° ENE 21:16:22 10° N
ISS -3.9 21:11:46 10° SW 21:15:01 65° SE 21:18:18 10° ENE
CZ-4B DEB 2.6 21:12:43 10° S 21:15:41 84° WSW 21:18:42 10° NNW
OAO 2 Rocket 3.7 21:11:49 10° WSW 21:16:29 43° S 21:20:51 12° ESE
Okean 2 4.4 21:16:41 12° SSE 21:19:46 28° E 21:23:18 10° NNE
Envisat 3.4 21:16:50 10° S 21:21:51 62° WSW 21:26:54 10° NNW
Cosmos 1943 Rocket 4.0 21:18:15 10° NW 21:22:55 28° WSW 21:27:33 10° SSW
GENESIS II 4.2 21:19:06 10° NNW 21:23:04 75° ENE 21:26:04 16° SE
Cosmos 2154 Rocket 4.4 21:18:58 10° N 21:25:05 47° ENE 21:30:20 14° SSE
Meteor 1-19 Rocket 4.4 21:21:20 10° SSW 21:27:09 80° W 21:32:55 10° N
Cosmos 405 Rocket 3.3 21:24:01 10° SSW 21:27:42 58° W 21:31:30 10° N
Intercosmos 24 4.3 21:25:30 10° N 21:29:10 39° ENE 21:31:21 19° SE
Meteor 1-23 Rocket 4.2 21:26:55 10° S 21:32:23 62° E 21:37:55 10° NNE
Cosmos 405 3.1 21:30:00 10° N 21:33:32 60° E 21:35:54 19° SSE
Cosmos 1346 4.4 21:34:19 10° SSW 21:36:54 36° WNW 21:39:31 10° N
Cosmos 1441 Rocket 3.1 21:34:05 10° S 21:37:49 88° W 21:41:35 10° N
ARGOS 3.6 21:35:51 17° SE 21:39:43 47° ENE 21:44:53 10° N
COSMOS 2487 4.0 21:42:32 19° E 21:42:32 19° E 21:45:05 10° NE
NOAA 11 4.2 21:38:20 16° SSE 21:42:44 69° ENE 21:48:09 10° N
SL-08 RB Rocket 4.5 21:40:28 20° SE 21:42:58 35° ENE 21:47:03 10° N
MOS 1-B Rocket 4.1 21:39:19 16° SSE 21:43:54 67° ENE 21:50:16 10° N
SPOT 1/Viking Rocket 4.3 21:42:06 19° ESE 21:45:11 36° ENE 21:49:53 10° N
Meteor 1-15 Rocket 4.2 21:42:22 10° N 21:47:57 69° E 21:51:59 19° SSE
PSLV R/B 3.0 21:50:40 10° W 21:53:47 67° SSW 21:54:47 38° SE
COSMOS 2406 4.4 21:48:36 10° SW 21:54:04 46° WNW 21:59:35 10° NNE
Cosmos 2228 4.1 21:51:07 10° NNE 21:54:53 29° ENE 21:56:17 24° ESE
Cosmos 1371 Rocket 4.0 21:49:34 10° NNW 21:54:55 80° ENE 21:58:15 23° SSE
DEBRIS 4.4 21:51:48 10° WSW 21:55:33 67° NNW 22:09:11 10° ENE
Okean 1-7 Rocket 3.8 21:51:19 10° SSW 21:55:44 71° W 22:00:14 10° N
Cosmos 2341 Rocket 4.2 21:50:03 10° N 21:56:20 60° E 22:00:32 22° SSE
Cosmos 921 Rocket 3.7 21:54:15 10° N 21:58:31 41° ENE 22:00:22 27° ESE
DNEPR-1 R/B 4.4 21:54:58 10° NW 21:59:03 44° WSW 22:01:59 19° S
Cosmos 2278 4.2 21:53:51 10° NNW 21:59:21 46° ENE 22:02:26 24° ESE
Cosmos 2082 Rocket 3.0 21:57:30 24° SE 21:59:43 31° ESE 22:04:38 10° NE
Cosmos 1892 Rocket 3.7 21:58:28 25° SSE 22:00:50 54° E 22:05:10 10° NNE
MetOp-B 4.1 21:57:57 20° SSE 22:01:47 88° WSW 22:07:11 10° NNW
ERS-1 Rocket 3.5 22:01:28 15° S 22:05:33 57° W 22:10:31 10° NNW
Cosmos 1606 Rocket 3.5 22:09:39 10° N 22:13:58 84° W 22:16:02 31° S
CENTAUR R/B 4.2 22:09:53 10° NW 22:17:01 36° WSW 22:23:53 12° S
Cosmos 2369 3.8 22:13:05 10° NNW 22:18:49 65° ENE 22:21:26 32° SE
USA 245 2.5 22:21:08 60° W 22:21:08 60° W 22:23:27 10° NNW
Cosmos 1697 Rocket 3.6 22:17:24 10° N 22:22:33 36° ENE 22:24:55 25° ESE
SPOT 5 2.7 22:20:56 31° S 22:22:55 69° WSW 22:27:16 10° NNW
Cosmos 1726 Rocket 3.5 22:19:48 10° N 22:24:07 78° W 22:25:51 36° S
Tiangong 2 1.4 22:21:21 10° W 22:24:30 63° N 22:25:27 39° ENE
Terra 2.5 22:24:44 32° ESE 22:26:06 39° ENE 22:30:32 10° N
Cosmos 2181 Rocket 4.0 22:22:27 19° S 22:27:11 88° E 22:33:31 10° N
Cosmos 1437 Rocket 3.7 22:28:05 10° NNW 22:31:43 41° W 22:33:18 27° SW
H-2A R/B 1.9 22:31:02 38° SSE 22:33:00 88° ENE 22:38:03 10° NNW
CARTOSAT-1 4.0 22:33:20 40° ESE 22:34:07 45° ENE 22:38:15 10° N
Cosmos 1656 3.8 22:29:08 10° NNW 22:34:33 61° ENE 22:36:29 39° SE
CZ-3A R/B 2.1 22:31:53 10° WSW 22:33:49 24° W 22:33:49 24° W
Cosmos 2058 Rocket 3.1 22:31:36 10° N 22:36:01 80° W 22:37:23 44° S
Cosmos 1833 Rocket 2.6 22:36:42 34° S 22:39:06 63° ESE 22:44:40 10° NNE
Meteor 1-4 Rocket 2.8 22:36:21 10° N 22:39:44 50° ENE 22:39:44 50° ENE
Cosmos 1271 Rocket 4.4 22:38:37 10° NNE 22:41:29 21° ENE 22:41:29 21° ENE
Cosmos 1066 Rocket 4.1 22:47:55 36° S 22:50:16 90° SE 22:55:56 10° N
DMSP B5D2-2 4.0 22:45:37 10° NNE 22:50:56 86° ESE 22:52:58 39° S
ISS -1.1 22:49:08 10° WNW 22:51:46 22° NNW 22:54:25 10° NNE
Cosmos 864 Rocket 4.5 22:47:39 10° N 22:53:58 73° E 22:56:05 43° SSE
CZ-4B R/B 3.8 22:52:25 10° NNE 22:57:18 46° E 22:57:35 45° ESE
H-2A R/B 2.0 22:58:24 66° SSE 22:59:01 83° ENE 23:03:35 10° NNW
OAO 2 Rocket 4.3 22:56:19 10° WSW 22:59:48 32° SW 22:59:48 32° SW
Cosmos 1812 Rocket 3.8 22:56:30 10° N 23:00:55 55° E 23:01:05 54° E
Meteor 2-21 4.3 22:58:55 10° N 23:04:59 87° W 23:06:55 46° S
Cosmos 1269 Rocket 4.1 23:05:05 53° ESE 23:05:24 54° ESE 23:10:34 10° NNE
Meteor 1-21 4.3 23:04:32 51° SE 23:05:32 59° E 23:11:11 10° NNE
Cosmos 1766 3.5 23:04:38 10° N 23:08:06 59° NE 23:08:06 59° NE
Meteor 2-21 Rocket 4.3 23:02:33 10° N 23:08:39 82° E 23:10:18 51° SSE
Lacrosse 5 rocket 4.3 23:07:33 10° NNW 23:10:11 15° NNE 23:12:48 10° NE
Cosmos 1980 Rocket 2.6 23:04:55 10° NNW 23:10:26 51° ENE 23:11:42 43° ESE
Cosmos 1626 Rocket 3.5 23:10:01 66° SW 23:10:26 73° W 23:14:46 10° N
SL-8 Rocket 4.4 23:04:31 10° NNW 23:10:39 59° W 23:13:19 34° SSW
IGS 5A 3.4 23:11:04 72° WSW 23:11:11 73° W 23:15:21 10° NNW
Cosmos 2366 rocket 4.0 23:09:45 10° NNW 23:15:54 72° W 23:17:52 45° SSW
Cosmos 1420 Rocket 3.8 23:11:25 10° NNW 23:16:43 88° ENE 23:17:26 67° SSE
Cosmos 2322 Rocket 3.8 23:15:24 10° N 23:19:58 24° NE 23:21:59 20° E
Cosmos 1048 Rocket 3.8 23:19:33 71° SSE 23:19:59 77° ESE 23:25:10 10° NNE
CZ-4 R/B 3.9 23:17:34 10° NNE 23:22:37 86° WNW 23:23:23 65° SSW
Cosmos 1825 Rocket 4.3 23:24:51 41° ENE 23:24:51 41° ENE 23:28:10 10° NNE
Cosmos 1544 4.1 23:22:09 10° N 23:24:42 41° NNE 23:24:42 41° NNE
ATLAS CENTAUR R/B 3.7 23:24:29 10° NNE 23:26:06 12° NE 23:26:48 12° NE
SL-19 R/B 4.4 23:22:49 10° N 23:28:07 62° WNW 23:29:46 41° SW
Cosmos 1758 4.3 23:24:29 10° N 23:27:30 38° NE 23:27:30 38° NE
Cosmos 1452 Rocket 4.1 23:24:30 10° NNW 23:29:32 46° WSW 23:30:19 43° SW
Cosmos 1805 4.0 23:38:00 10° N 23:40:59 51° N 23:40:59 51° N
Timation 2 Rocket 4.2 23:40:22 33° SW 23:43:16 67° WNW 23:49:25 10° NNE
Cosmos 2082 Rocket 3.5 23:39:15 14° WSW 23:43:40 37° WNW 23:48:54 10° N
Cosmos 2251 Rocket 4.4 23:48:34 36° E 23:48:34 36° E 23:52:41 10° NE
USA 267 3.1 23:42:26 10° NE 23:48:59 74° SE 23:50:48 50° SSW
CZ-2C R/B 3.5 23:44:09 10° NNE 23:48:59 38° E 23:48:59 38° E
